Regional Weather Roundup
Issued by NWS

Home | Current Version | Previous Version | Text Only | Print | Product List | Glossary On
Versions: 1 2 3 4 5 6 7 8 9 10 11 12 13 14 15 16 17 18 19 20 21 22 23 24 25 26 27
000
ASUS45 KTFX 011710
RWRMT
MONTANA REGIONAL WEATHER ROUNDUP
NATIONAL WEATHER SERVICE GREAT FALLS MT
1100 AM MDT SAT OCT 01 2016

NOTE: "FAIR" INDICATES FEW OR NO CLOUDS BELOW 12000 FEET WITH NO
SIGNIFICANT WEATHER AND/OR OBSTRUCTIONS TO VISIBILITY.

MTZ001>007-043-011800-
WEST OF THE DIVIDE

CITY           SKY/WX    TMP DP  RH WIND       PRES   REMARKS
KALISPELL      CLOUDY    55  52  89 CALM      29.93R
MISSOULA       PTSUNNY   58  52  80 E5        29.95S
BUTTE          CLOUDY    58  44  60 S5        30.06R
MULLAN PASS    FOG       43  42  97 VRB3      29.99S VSB 1/4
ANACONDA         N/A     57  46  67 SE7       30.00F
DEER LODGE       N/A     57  46  67 SW7       30.02S
EUREKA           N/A     52  52 100 CALM      29.94F
HAMILTON         N/A     61  48  63 S7        29.95S
LIBBY            N/A     54  52  94 CALM      29.92F
PLAINS           N/A     60  49  67 NE1       29.92F
RONAN            N/A     56  53  89 N3        29.98R
$$

MTZ008-052>055-011800-
SOUTHWEST MONTANA

CITY           SKY/WX    TMP DP  RH WIND       PRES   REMARKS
BOZEMAN        CLOUDY    60  47  61 CALM      30.02F
DILLON         MOSUNNY   60  45  57 VRB3      30.03F
W YELLOWSTONE  CLOUDY    43  41  93 SE3       30.17S
ENNIS          SUNNY     66  45  45 S16G23    30.06F
THREE FORKS      N/A     60  37  42 CALM      29.99F
TWIN BRIDGES     N/A     53  49  86 SW2       30.02S
$$

MTZ009-010-012-014-046-048-049-054-011800-
EAST SLOPES AND CENTRAL MONTANA

CITY           SKY/WX    TMP DP  RH WIND       PRES   REMARKS
CUT BANK       CLOUDY    54  48  80 NW12      29.93R
GREAT FALLS    CLOUDY    65  44  46 S8        29.91R
MALMSTROM AFB  LGT RAIN  65  46  50 SW8       29.92R
HELENA         CLOUDY    59  46  62 W5        29.95F
AUGUSTA        PTSUNNY   57  47  71 N7        29.92S
BOWMANS CRNR     N/A     63  44  49 SW17G23   29.91S
CHOTEAU          N/A     55  50  82 N6        29.94F
CONRAD           N/A     54  54 100 W10       29.96R
FAIRFIELD        N/A     58  47  68 W12       29.90F
POWER            N/A     60  47  64 NW6       29.90S
RAYNESFORD     PTSUNNY   69  46  44 SW9       29.94R
$$

MTZ011-013-016-021-045-047-050-051-011800-
NORTH CENTRAL MONTANA

CITY           SKY/WX    TMP DP  RH WIND       PRES   REMARKS
HAVRE          SUNNY     70  57  63 NE10      29.83F
LEWISTOWN      SUNNY     74  46  36 SE7       29.92F
N BAR RANCH      N/A     73  45  35 S18G25    29.97F
CHINOOK          N/A     64  55  72 E12G17    29.85F
DENTON           N/A     68  49  51 S9        29.86F
GEYSER         PTSUNNY   57  47  71 N7        29.92S
GRASS RANGE      N/A     75  46  36 SE10G18   29.89F
JUDITH GAP       N/A     65  48  53 S12       29.97F
ROY              N/A     70  53  55 MISG      29.90F
STANFORD       PTSUNNY   71  42  35 S15       29.93S
WINIFRED         N/A     68  54  61 MISG      29.90F
$$

MTZ017>020-022>027-061-062-011800-
NORTHEAST MONTANA

CITY           SKY/WX    TMP DP  RH WIND       PRES   REMARKS
GLASGOW        SUNNY     65  51  60 E9G17     29.92F
JORDAN           N/A     70  56  61 SE6       29.92F
SIDNEY         SUNNY     63  52  67 E3        29.95F
WOLF POINT     SUNNY     65  52  62 E8        29.94F
PLENTYWOOD       N/A     68  52  56 SE8       29.97S
POPLAR           N/A     66  50  55 E9        29.94F
SCOBEY           N/A     66  50  56 CALM      29.95F
$$

MTZ028>42-056>058-011800-
SOUTHCENTRAL AND SOUTHEAST MONTANA

CITY           SKY/WX    TMP DP  RH WIND       PRES   REMARKS
BAKER          SUNNY     72  52  49 E3        29.98F
BILLINGS       MOSUNNY   65  47  52 SW7       29.96F
LIVINGSTON     SUNNY     69  42  37 SW22G30   29.99S
MILES CITY     SUNNY     68  52  56 SE5       29.94F
BIG TIMBER     SUNNY     64  48  55 CALM      30.01S
EKALAKA          N/A     76  50  40 CALM      29.98S
FORSYTH          N/A     70  54  56 E6        29.93F
HARLOWTON        N/A     64  47  54 S5        29.97F
LAUREL           N/A     67  45  45 SW1       29.95F
ROUNDUP          N/A     65  47  52 S5        29.87F
$$

REGIONAL REPORTS...DAKOTAS

CITY           SKY/WX    TMP DP  RH WIND       PRES   REMARKS
WILLISTON      SUNNY     63  50  62 CALM      29.97F
MINOT          SUNNY     65  50  58 E7        29.99F
DICKINSON      SUNNY     67  50  54 E5        29.96F
BEACH            N/A     70  54  56 SE5       30.00F
CROSBY           N/A     64  50  59 E6        30.01S
WATFORD CITY     N/A     64  50  59 SE5       29.98S
BISMARCK       SUNNY     67  49  52 SE14      30.01F
GRAND FORKS    CLOUDY    60  51  72 SE6       30.13F
FARGO          SUNNY     65  53  65 SE10      30.13F
BUFFALO SD       N/A     73  51  46 CALM      29.93S
RAPID CITY     SUNNY     74  52  46 VRB3      30.00F
$$

REGIONAL REPORTS...WYOMING/IDAHO/WASHINGTON

CITY           SKY/WX    TMP DP  RH WIND       PRES   REMARKS
GILLETTE       SUNNY     73  49  42 S6        30.04F
SHERIDAN       SUNNY     70  52  52 N6        29.98F
BUFFALO WY     SUNNY     73  45  36 SE13      30.05F
CODY           SUNNY     72  43  35 S6        30.04F
YELLOWSTONE LA   N/A     52  45  77 CALM      30.22F
IDAHO FALLS    CLOUDY    64  46  52 S10       30.05F
SALMON         CLOUDY    57  50  77 CALM      30.00F
BOISE          MOSUNNY   66  30  26 NW17      30.02R
SPOKANE        PTSUNNY   48  42  80 S8        29.99R
$$

REGIONAL REPORTS...ALBERTA

CITY           SKY/WX    TMP DP  RH WIND       PRES   REMARKS
EDMONTON       CLOUDY    45  45 100 E16       29.95F
CALGARY        LGT RAIN  48  46  93 CALM      29.89F FOG
LETHBRIDGE     LGT RAIN  52  50  93 W12       29.91S FOG
MEDICINE HAT   PTSUNNY   55  50  82 CALM      29.85S
WATERTON GATE    N/A     50  48  93 NE5         N/A
MILK RIVER       N/A     55  50  82 W12         N/A
ONEFOUR          N/A     63  52  67 SE7         N/A
$$

REGIONAL REPORTS...SASKATCHEWAN

CITY           SKY/WX    TMP DP  RH WIND       PRES   REMARKS
SWIFT CURRENT  MOSUNNY   61  54  77 SE16      29.90F
REGINA         MOSUNNY   63  50  63 E12       29.98F
SASKATOON      CLOUDY    52  52 100 E12G17    30.03S
CYPRESS HILLS    N/A     63  48  59 SE13G18     N/A
VAL MARIE        N/A     70  52  52 SE14        N/A
ROCKGLEN         N/A     68  54  60 E9          N/A
$$




USA.gov is the U.S. government's official web portal to all federal, state and local government web resources and services.